This demonstration page uses our WeatherBlox Daily Observations layout. Learn more.

Hourly Observations for February 5, 2017

Temp ( °F °C ) Dew Point ( °F °C ) Humidity (%) Winds ( mph kmh ) Pressure ( in mb ) Visibility ( mi km ) Precip ( " mm )
12:54 am 00:54 Clear 29 -1.7 21 -6.1 72 72 NNW 16 26 30.03 1017 10 16.0934 0 0
1:54 am 01:54 Clear 28 -2.2 22 -5.6 78 78 NNW 8 13 30.06 1018 10 16.0934 0 0
2:54 am 02:54 Clear 26 -3.3 21 -6.1 81 81 NNW 6 9 30.06 1018 10 16.0934 0 0
3:54 am 03:54 Clear 26 -3.3 21 -6.1 81 81 N 6 9 30.08 1019 10 16.0934 0 0
4:54 am 04:54 Clear 21 -6.1 18 -7.8 88 88 N 8 13 30.1 1019 10 16.0934 0 0
5:54 am 05:54 Clear 20 -6.7 17 -8.3 89 89 NNE 8 13 30.12 1020 10 16.0934 0 0
6:54 am 06:54 Clear 21 -6.1 17 -8.3 85 85 N 8 13 30.14 1021 10 16.0934 0 0
7:54 am 07:54 Sunny 20 -6.7 15 -9.4 81 81 N 8 13 30.16 1021 10 16.0934 0 0
8:54 am 08:54 Sunny 24 -4.4 16 -8.9 71 71 N 8 13 30.18 1022 10 16.0934 0 0
9:54 am 09:54 Sunny 26 -3.3 16 -8.9 66 66 NNE 8 13 30.19 1022 10 16.0934 0 0
10:54 am 10:54 Sunny 28 -2.2 15 -9.4 58 58 VRB 3 6 30.2 1023 10 16.0934 0 0
11:54 am 11:54 Sunny 31 -0.6 16 -8.9 54 54 VRB 3 6 30.19 1022 10 16.0934 0 0
12:54 pm 12:54 Sunny 34 1.1 17 -8.3 50 50 E 5 7 30.12 1020 10 16.0934 0 0
1:54 pm 13:54 Sunny 36 2.2 17 -8.3 46 46 ESE 5 7 30.1 1019 10 16.0934 0 0
2:54 pm 14:54 Sunny 37 2.8 18 -7.8 46 46 E 3 6 30.08 1019 10 16.0934 0 0
3:54 pm 15:54 Sunny 40 4.4 19 -7.2 43 43 VRB 5 7 30.06 1018 10 16.0934 0 0
4:54 pm 16:54 Sunny 40 4.4 20 -6.7 45 45 Calm 30.07 1018 10 16.0934 0 0
5:54 pm 17:54 Clear 36 2.2 20 -6.7 52 52 SE 7 11 30.06 1018 10 16.0934 0 0
6:54 pm 18:54 Clear 33 0.6 21 -6.1 61 61 SE 8 13 30.06 1018 10 16.0934 0 0
7:54 pm 19:54 Clear 33 0.6 22 -5.6 64 64 SE 8 13 30.05 1018 10 16.0934 0 0
8:54 pm 20:54 Clear 29 -1.7 21 -6.1 72 72 S 8 13 30.02 1017 10 16.0934 0 0
9:54 pm 21:54 Clear 31 -0.6 21 -6.1 67 67 SW 3 6 30.02 1017 10 16.0934 0 0
10:54 pm 22:54 Clear 29 -1.7 21 -6.1 72 72 Calm 30.01 1016 10 16.0934 0 0
11:54 pm 23:54 Clear 27 -2.8 21 -6.1 78 78 SSE 3 6 29.98 1015 10 16.0934 0 0

Powered by AerisWeather